Date String (YYYY-MM-DD hh:mm:ss) UTC,Instrument flags,Ambient pressure (hPa),Sample flow (lpm),Bypass flow (lpm),Sample temperature (°C),Ambient temperature (°C),ASC tube jacket temperature (°C),LED temperature (°C),Box temperature (°C),Sample RH (%),Span deviation,Mass concentration (μg/m³),Mass concentration (μg/m³),Mass concentration (μg/m³)
DateTimeUTC,F1_M11,P_M11,Q1_M11,Q2_M11,T1_M11,T2_M11,T3_M11,T4_M11,T5_M11,U1_M11,ZSPAN_M11,X2_M11,X0_M11,X1_M11
2023-03-11 22:00:00,,0816.1,5.02,0.00,22.9,21.5,00.0,31.6,24.8,07.4,0000.0,0001.13,0002.52,0000.60
2023-03-11 22:01:00,,0816.1,5.00,0.00,22.9,21.5,00.0,31.6,24.7,07.6,0000.0,0001.14,0002.80,0000.60
2023-03-11 22:02:00,,0816.1,4.98,0.00,22.9,21.5,00.0,31.6,24.7,07.8,0000.0,0001.10,0002.75,0000.60
2023-03-11 22:03:00,,0816.1,5.00,0.00,22.9,21.5,00.0,31.6,24.7,07.8,0000.0,0001.11,0002.66,0000.60
2023-03-11 22:04:00,,0816.1,5.00,0.00,22.9,21.4,00.0,31.6,24.7,07.9,0000.0,0001.11,0002.52,0000.60
2023-03-11 22:05:00,,0816.2,4.99,0.00,22.9,21.4,00.0,31.6,24.7,08.0,0000.0,0001.13,0002.57,0000.61
2023-03-11 22:06:00,,0816.1,5.01,0.00,22.9,21.4,00.0,31.6,24.7,07.9,0000.0,0001.10,0002.53,0000.60
2023-03-11 22:07:00,,0816.1,5.00,0.00,22.9,21.4,00.0,31.6,24.7,07.6,0000.0,0001.09,0003.02,0000.61
2023-03-11 22:08:00,,0816.0,5.00,0.00,22.9,21.4,00.0,31.6,24.7,07.7,0000.0,0001.16,0003.55,0000.63
2023-03-11 22:09:00,,0816.0,5.00,0.00,22.9,21.5,00.0,31.6,24.7,07.5,0000.0,0001.18,0003.60,0000.63
2023-03-11 22:10:00,,0816.0,5.00,0.00,22.9,21.5,00.0,31.6,24.8,07.4,0000.0,0001.20,0003.58,0000.63
2023-03-11 22:11:00,,0816.1,4.99,0.00,22.9,21.5,00.0,31.6,24.8,07.1,0000.0,0001.24,0003.56,0000.63
2023-03-11 22:12:00,,0816.1,4.99,0.00,22.9,21.5,00.0,31.6,24.8,07.4,0000.0,0001.24,0003.32,0000.64
2023-03-11 22:13:00,,0816.1,5.00,0.00,22.9,21.5,00.0,31.6,24.8,07.6,0000.0,0001.27,0003.33,0000.65
2023-03-11 22:14:00,,0816.1,5.00,0.00,22.9,21.5,00.0,31.6,24.8,07.4,0000.0,0001.23,0003.62,0000.65
2023-03-11 22:15:00,,0816.1,5.00,0.00,22.9,21.6,00.0,31.6,24.8,07.5,0000.0,0001.19,0004.49,0000.65
2023-03-11 22:16:00,,0816.1,5.01,0.00,22.9,21.6,00.0,31.6,24.8,07.5,0000.0,0001.18,0004.44,0000.65
2023-03-11 22:17:00,,0816.1,5.00,0.00,22.9,21.6,00.0,31.7,24.8,07.7,0000.0,0001.18,0004.50,0000.65
2023-03-11 22:18:00,,0816.1,4.99,0.00,22.9,21.6,00.0,31.6,24.8,07.7,0000.0,0001.15,0003.95,0000.64
2023-03-11 22:19:00,,0816.1,5.00,0.00,22.9,21.6,00.0,31.6,24.7,07.7,0000.0,0001.07,0003.39,0000.63
2023-03-11 22:20:00,,0816.1,4.99,0.00,22.9,21.6,00.0,31.6,24.7,07.6,0000.0,0001.04,0003.35,0000.62
2023-03-11 22:21:00,,0816.1,5.01,0.00,22.9,21.5,00.0,31.6,24.8,07.7,0000.0,0001.02,0003.32,0000.62
2023-03-11 22:22:00,,0816.2,5.01,0.00,22.9,21.5,00.0,31.6,24.7,07.6,0000.0,0000.99,0003.19,0000.62
2023-03-11 22:23:00,,0816.2,5.01,0.00,22.9,21.5,00.0,31.6,24.7,07.5,0000.0,0001.00,0003.23,0000.61
2023-03-11 22:24:00,,0816.3,5.00,0.00,22.9,21.5,00.0,31.6,24.7,07.3,0000.0,0000.99,0003.25,0000.61
2023-03-11 22:25:00,,0816.3,5.00,0.00,22.9,21.5,00.0,31.6,24.7,07.3,0000.0,0000.97,0002.88,0000.61
2023-03-11 22:26:00,,0816.3,5.00,0.00,22.9,21.4,00.0,31.6,24.7,07.3,0000.0,0000.97,0001.96,0000.61
2023-03-11 22:27:00,,0816.3,5.00,0.00,22.9,21.4,00.0,31.6,24.7,07.4,0000.0,0000.96,0002.35,0000.61
2023-03-11 22:28:00,,0816.3,5.01,0.00,22.9,21.4,00.0,31.6,24.7,07.4,0000.0,0000.94,0002.26,0000.62
2023-03-11 22:29:00,,0816.4,5.00,0.00,22.9,21.4,00.0,31.6,24.7,07.3,0000.0,0000.98,0002.35,0000.63
2023-03-11 22:30:00,,0816.3,5.00,0.00,22.9,21.4,00.0,31.6,24.7,07.3,0000.0,0001.02,0002.45,0000.63
2023-03-11 22:31:00,,0816.4,5.01,0.00,22.9,21.4,00.0,31.6,24.7,07.2,0000.0,0001.07,0002.53,0000.64
2023-03-11 22:32:00,,0816.4,5.00,0.00,22.9,21.4,00.0,31.6,24.7,07.1,0000.0,0001.09,0002.55,0000.64
2023-03-11 22:33:00,,0816.4,5.01,0.00,22.9,21.4,00.0,31.6,24.7,07.2,0000.0,0001.09,0002.57,0000.64
2023-03-11 22:34:00,,0816.4,5.00,0.00,22.9,21.3,00.0,31.6,24.7,07.1,0000.0,0001.09,0002.54,0000.65
2023-03-11 22:35:00,,0816.4,5.00,0.00,22.9,21.4,00.0,31.6,24.7,07.1,0000.0,0001.09,0002.52,0000.64
2023-03-11 22:36:00,,0816.4,5.00,0.00,22.9,21.4,00.0,31.6,24.7,07.1,0000.0,0001.13,0002.53,0000.64
2023-03-11 22:37:00,,0816.3,4.99,0.00,22.9,21.4,00.0,31.6,24.7,07.2,0000.0,0001.15,0002.58,0000.64
2023-03-11 22:38:00,,0816.4,5.00,0.00,22.9,21.4,00.0,31.6,24.7,07.2,0000.0,0001.15,0002.15,0000.65
2023-03-11 22:39:00,,0816.4,5.00,0.00,22.9,21.5,00.0,31.6,24.7,07.4,0000.0,0001.14,0002.10,0000.65
2023-03-11 22:40:00,,0816.5,5.00,0.00,22.9,21.4,00.0,31.6,24.7,07.4,0000.0,0001.11,0002.00,0000.64
2023-03-11 22:41:00,,0816.4,4.99,0.00,22.9,21.4,00.0,31.6,24.7,07.5,0000.0,0001.10,0002.01,0000.64
2023-03-11 22:42:00,,0816.4,4.99,0.00,22.8,21.4,00.0,31.6,24.7,07.4,0000.0,0001.07,0001.96,0000.64
2023-03-11 22:43:00,,0816.4,5.00,0.00,22.9,21.4,00.0,31.6,24.7,07.3,0000.0,0001.08,0002.01,0000.64
2023-03-11 22:44:00,,0816.4,5.01,0.00,22.9,21.4,00.0,31.6,24.7,07.3,0000.0,0001.11,0002.07,0000.65
2023-03-11 22:45:00,,0816.5,5.00,0.00,22.9,21.4,00.0,31.6,24.7,07.3,0000.0,0001.15,0002.14,0000.67
2023-03-11 22:46:00,,0816.5,5.00,0.00,22.8,21.4,00.0,31.6,24.7,07.3,0000.0,0001.16,0002.16,0000.67
2023-03-11 22:47:00,,0816.8,5.01,0.00,22.8,21.4,00.0,31.6,24.7,07.3,0000.0,0001.14,0002.11,0000.69
2023-03-11 22:48:00,,0817.0,5.00,0.00,22.8,21.4,00.0,31.6,24.6,07.4,0000.0,0001.13,0002.73,0000.69
2023-03-11 22:49:00,,0816.8,5.00,0.00,22.8,21.4,00.0,31.6,24.7,07.5,0000.0,0001.12,0003.09,0000.69
2023-03-11 22:50:00,,0816.9,5.01,0.00,22.8,21.4,00.0,31.6,24.7,07.4,0000.0,0001.14,0003.19,0000.70
2023-03-11 22:51:00,,0816.8,5.00,0.00,22.8,21.5,00.0,31.6,24.7,07.6,0000.0,0001.16,0003.25,0000.71
2023-03-11 22:52:00,,0816.7,5.01,0.00,22.8,21.4,00.0,31.6,24.6,07.5,0000.0,0001.16,0003.22,0000.72
2023-03-11 22:53:00,,0816.5,5.00,0.00,22.8,21.4,00.0,31.6,24.7,07.7,0000.0,0001.19,0003.30,0000.73
2023-03-11 22:54:00,,0816.5,5.00,0.00,22.8,21.5,00.0,31.6,24.7,07.7,0000.0,0001.15,0003.16,0000.73
2023-03-11 22:55:00,,0816.4,5.01,0.00,22.8,21.5,00.0,31.6,24.7,07.4,0000.0,0001.15,0003.25,0000.72
2023-03-11 22:56:00,,0816.4,5.00,0.00,22.8,21.5,00.0,31.6,24.7,07.6,0000.0,0001.14,0003.29,0000.71
2023-03-11 22:57:00,,0816.4,4.99,0.00,22.8,21.5,00.0,31.6,24.7,07.6,0000.0,0001.12,0003.28,0000.71
2023-03-11 22:58:00,,0816.5,5.00,0.00,22.9,21.4,00.0,31.6,24.7,07.7,0000.0,0001.14,0003.44,0000.71
2023-03-11 22:59:00,,0816.5,5.01,0.00,22.8,21.4,00.0,31.6,24.7,07.5,0000.0,0001.16,0003.15,0000.70
